Powrót do katalogu

COMS 1

AktywnyPogodaGEO
NORAD 36744·PAYLOAD·🇰🇷 South Korea

Wystrzelony Jun 26, 2010 z Guiana Space Centre

Loading…

TLE

ŚwieżeSource: Space-Track

Epoka: Sep 14, 2026, 14:10 UTC

1 36744U 10032A   26257.59052774  .00000039  00000-0  00000-0 0  9993
2 36744   5.0298  74.2325 0010614  19.4104 190.2592  0.99163195 51977

Śledź COMS 1 w czasie rzeczywistym z AllMySat

Download on the App Store